ORS 1

operational
NORAD ID: 2412 Int'l Des: 1966-077 Owner: AFSSD Country: US
MEOCIRCULARRETROGRADE

Über ORS 1

Beschreibung wird geladen...

Live-Position

3D-Globus wird geladen...

Nächste Überflüge

Höhenverlauf

Altitude vs Time

uPlot chart will show altitude changes over time

Zweizeiliger Elementsatz

1 02412U 66077C 26062.02115785 .00000002 00000-0 00000-0 0 9992
2 02412 90.3279 276.0060 0007023 168.4025 191.6989 8.59079415381340
Epoch: 3. März 2026 • Age: 42 hours

Aktueller Status

Höhe 3703.4 km
Geschwindigkeit 6.29 km/s
Subsatellitenpunkt -10.01°S, 161.68°W
Typ other

Große Konstellationen

Loading constellations...